Location: Gleizolles
(44.4833°N, 6.7667°E)
Time: 16:53:35
(UTC+00:00)

Tiros 1 - Pass Details

Date: 01 July 2024
Orbit: 624 x 656 km, 48.4° (Epoch: 13 July)

Event Time Altitude Azimuth Distance (km) Brightness Sun altitude
Rises 21:33:23 0° 262° (W) 2,900 10.8 -16.8°
Reaches altitude 10° 21:35:43 10° 265° (W) 1,993 10.0 -17.0°
Maximum altitude 21:40:15 62° 347° (NNW) 704 7.6 -17.4°
Drops below altitude 10° 21:44:49 10° 68° (ENE) 1,999 9.6 -17.8°
Sets 21:47:10 0° 72° (ENE) 2,910 10.4 -18.0°
